Location: Asheville, NC
(35.6000°N, 82.5500°W)
Time: 04:24:53
(UTC-05:00)

Vanguard 2 Rocket - Pass Details

Date: 14 December 2017
Orbit: 556 x 3326 km, 32.9° (Epoch: 17 January)

Event Time Altitude Azimuth Distance (km) Brightness Sun altitude
Rises 16:30:08 0° 188° (S) 4,000 10.9 7.4°
Reaches altitude 10° 16:33:41 10° 169° (SSE) 3,450 10.2 6.9°
Maximum altitude 16:39:23 18° 129° (SE) 3,487 9.8 5.9°
Drops below altitude 10° 16:47:04 10° 93° (E) 4,885 10.2 4.6°
Sets 16:53:38 0° 79° (ENE) 6,453 10.6 3.5°
